DW5684 Weather Reports


Display with metric or nautical units.
time (UTC)temp
F
wind
direction
speed
MPH
gust
MPH
rain 1hr
in
rain 24hr
in
rain mn
in
humidity
%
barometer
mb
20260905174819 99 346 0.0 4.0 0.00 0.00 0.00 47 1015.7
20260905174314 98 20 0.0 3.0 0.00 0.00 0.00 44 1015.8
20260905173828 98 69 0.0 3.0 0.00 0.00 0.00 45 1015.8
20260905173322 98 266 0.0 4.0 0.00 0.00 0.00 45 1015.9
20260905172821 98 330 1.0 4.0 0.00 0.00 0.00 46 1016.0
20260905172316 99 290 2.0 4.0 0.00 0.00 0.00 44 1016.1
20260905171811 99 176 1.0 3.0 0.00 0.00 0.00 45 1016.1
20260905171326 99 206 1.0 4.0 0.00 0.00 0.00 46 1016.2
20260905170842 98 183 2.0 5.0 0.00 0.00 0.00 45 1016.3
20260905170315 97 278 1.0 5.0 0.00 0.00 0.00 47 1016.4
20260905165810 97 289 0.0 7.0 0.00 0.00 0.00 47 1016.4
20260905165323 97 342 3.0 7.0 0.00 0.00 0.00 46 1016.4
20260905164821 98 283 2.0 6.0 0.00 0.00 0.00 47 1016.4
20260905164315 97 49 0.0 3.0 0.00 0.00 0.00 48 1016.4
20260905163847 96 276 0.0 6.0 0.00 0.00 0.00 48 1016.4
20260905163320 97 36 3.0 6.0 0.00 0.00 0.00 48 1016.5
20260905162815 96 257 0.0 4.0 0.00 0.00 0.00 49 1016.5
20260905162310 96 5 2.0 4.0 0.00 0.00 0.00 48 1016.5
20260905161825 97 222 0.0 5.0 0.00 0.00 0.00 48 1016.6
20260905161318 97 4 1.0 3.0 0.00 0.00 0.00 48 1016.7
20260905160833 96 203 0.0 1.0 0.00 0.00 0.00 49 1016.7
20260905160330 96 293 0.0 4.0 0.00 0.00 0.00 49 1016.6
20260905155824 96 283 2.0 4.0 0.00 0.00 0.00 50 1016.7
20260905155318 95 216 0.0 3.0 0.00 0.00 0.00 51 1016.6
20260905154833 94 302 2.0 4.0 0.00 0.00 0.00 52 1016.6
20260905154327 95 319 0.0 4.0 0.00 0.00 0.00 51 1016.5
20260905153820 94 210 0.0 4.0 0.00 0.00 0.00 52 1016.4
20260905153314 94 302 0.0 5.0 0.00 0.00 0.00 53 1016.4
20260905152809 94 321 0.0 2.0 0.00 0.00 0.00 52 1016.4
20260905152325 94 300 0.0 4.0 0.00 0.00 0.00 51 1016.3
20260905151824 94 212 1.0 4.0 0.00 0.00 0.00 52 1016.3
20260905151339 94 286 0.0 3.0 0.00 0.00 0.00 53 1016.3
20260905150813 94 244 0.0 3.0 0.00 0.00 0.00 53 1016.3
20260905150308 94 274 0.0 3.0 0.00 0.00 0.00 52 1016.3
20260905145823 94 199 0.0 3.0 0.00 0.00 0.00 52 1016.2
20260905145317 94 199 0.0 4.0 0.00 0.00 0.00 53 1016.1
20260905144812 93 281 0.0 2.0 0.00 0.00 0.00 53 1016.3
20260905144307 93 212 1.0 2.0 0.00 0.00 0.00 53 1016.2
20260905143826 93 205 0.0 2.0 0.00 0.00 0.00 56 1016.1
20260905143321 92 240 0.0 3.0 0.00 0.00 0.00 54 1016.0
20260905142815 92 203 1.0 3.0 0.00 0.00 0.00 55 1016.0
20260905142311 92 162 1.0 3.0 0.00 0.00 0.00 54 1016.0
20260905141826 92 146 0.0 0.0 0.00 0.00 0.00 55 1016.0
20260905141321 92 211 0.0 0.0 0.00 0.00 0.00 55 1015.9
20260905140815 91 203 0.0 0.0 0.00 0.00 0.00 57 1015.9
20260905140329 91 200 0.0 2.0 0.00 0.00 0.00 57 1016.0
20260905135826 90 219 0.0 3.0 0.00 0.00 0.00 59 1016.0
20260905135320 89 207 1.0 4.0 0.00 0.00 0.00 59 1016.0
20260905134815 89 214 1.0 3.0 0.00 0.00 0.00 60 1015.9
20260905134310 88 232 0.0 2.0 0.00 0.00 0.00 61 1015.9
20260905133825 88 147 0.0 2.0 0.00 0.00 0.00 62 1016.0
20260905133318 88 205 0.0 2.0 0.00 0.00 0.00 62 1015.9
20260905132832 87 207 0.0 2.0 0.00 0.00 0.00 63 1016.0
20260905132324 86 165 1.0 2.0 0.00 0.00 0.00 65 1016.0
20260905131839 86 200 0.0 3.0 0.00 0.00 0.00 66 1015.9
20260905131317 85 212 1.0 3.0 0.00 0.00 0.00 66 1015.9
20260905130812 85 217 0.0 3.0 0.00 0.00 0.00 66 1015.8
20260905130326 84 212 0.0 2.0 0.00 0.00 0.00 68 1015.8
20260905125842 83 199 0.0 3.0 0.00 0.00 0.00 70 1015.7
20260905125315 82 217 0.0 3.0 0.00 0.00 0.00 71 1015.6
20260905124810 81 221 0.0 1.0 0.00 0.00 0.00 73 1015.6
20260905124325 79 221 0.0 0.0 0.00 0.00 0.00 76 1015.5
20260905123841 77 221 0.0 0.0 0.00 0.00 0.00 78 1015.4
20260905123315 77 221 0.0 0.0 0.00 0.00 0.00 78 1015.5
20260905122814 76 221 0.0 0.0 0.00 0.00 0.00 79 1015.4
20260905122309 76 221 0.0 0.0 0.00 0.00 0.00 79 1015.4
20260905121823 76 221 0.0 0.0 0.00 0.00 0.00 79 1015.3
20260905121318 76 221 0.0 0.0 0.00 0.00 0.00 79 1015.2
20260905120813 76 221 0.0 0.0 0.00 0.00 0.00 79 1015.2
20260905120307 76 221 0.0 0.0 0.00 0.00 0.00 79 1015.1
20260905115821 76 221 0.0 0.0 0.00 0.00 0.00 79 1015.0
20260905115314 76 221 0.0 0.0 0.00 0.00 0.00 79 1015.0
20260905114812 76 221 0.0 0.0 0.00 0.00 0.00 79 1015.0
20260905114326 76 211 0.0 0.0 0.00 0.00 0.00 79 1014.9
20260905113821 76 146 0.0 0.0 0.00 0.00 0.00 79 1014.8
20260905113315 76 146 0.0 0.0 0.00 0.00 0.00 79 1014.9
20260905112830 76 146 0.0 0.0 0.00 0.00 0.00 79 1014.9
20260905112324 76 146 0.0 0.0 0.00 0.00 0.00 78 1014.8
20260905111818 76 146 0.0 0.0 0.00 0.00 0.00 78 1014.8
20260905111312 76 146 0.0 0.0 0.00 0.00 0.00 78 1014.8
20260905110811 76 146 0.0 0.0 0.00 0.00 0.00 78 1014.8
20260905110326 77 146 0.0 0.0 0.00 0.00 0.00 78 1014.8
20260905105821 77 146 0.0 0.0 0.00 0.00 0.00 78 1014.8
20260905105317 77 146 0.0 0.0 0.00 0.00 0.00 77 1014.7
20260905104812 77 146 0.0 0.0 0.00 0.00 0.00 77 1014.7
20260905104326 77 146 0.0 0.0 0.00 0.00 0.00 77 1014.7
20260905103841 77 146 0.0 0.0 0.00 0.00 0.00 77 1014.7
20260905103314 77 146 0.0 0.0 0.00 0.00 0.00 77 1014.6
20260905102809 77 146 0.0 0.0 0.00 0.00 0.00 77 1014.7
20260905102307 77 146 0.0 0.0 0.00 0.00 0.00 77 1014.8
20260905101823 77 146 0.0 0.0 0.00 0.00 0.00 77 1014.8
20260905101318 77 146 0.0 0.0 0.00 0.00 0.00 77 1014.7
20260905100813 78 146 0.0 0.0 0.00 0.00 0.00 76 1014.6
20260905100328 78 146 0.0 0.0 0.00 0.00 0.00 76 1014.6
20260905095822 78 218 0.0 0.0 0.00 0.00 0.00 76 1014.6
20260905095317 78 216 0.0 0.0 0.00 0.00 0.00 76 1014.7
20260905094812 78 214 0.0 0.0 0.00 0.00 0.00 76 1014.6
20260905094332 78 214 0.0 1.0 0.00 0.00 0.00 76 1014.5
20260905093826 77 223 0.0 1.0 0.00 0.00 0.00 77 1014.5
20260905093341 77 186 0.0 2.0 0.00 0.00 0.00 77 1014.5
20260905092814 77 168 0.0 0.0 0.00 0.00 0.00 77 1014.4
20260905092309 77 167 0.0 0.0 0.00 0.00 0.00 78 1014.4
20260905091824 77 169 0.0 0.0 0.00 0.00 0.00 78 1014.4
20260905091319 77 167 0.0 0.0 0.00 0.00 0.00 78 1014.5
20260905090814 77 167 0.0 0.0 0.00 0.00 0.00 78 1014.5
20260905090313 77 169 0.0 0.0 0.00 0.00 0.00 78 1014.5
20260905085808 77 169 0.0 0.0 0.00 0.00 0.00 77 1014.4
20260905085342 77 168 0.0 0.0 0.00 0.00 0.00 77 1014.4
20260905084816 77 169 0.0 0.0 0.00 0.00 0.00 77 1014.4
20260905084310 77 169 0.0 0.0 0.00 0.00 0.00 77 1014.3
20260905083826 77 169 0.0 0.0 0.00 0.00 0.00 76 1014.3
20260905083340 78 168 0.0 0.0 0.00 0.00 0.00 75 1014.4
20260905082811 78 169 0.0 0.0 0.00 0.00 0.00 75 1014.4
20260905082325 78 168 0.0 0.0 0.00 0.00 0.00 75 1014.4
20260905081840 78 168 0.0 0.0 0.00 0.00 0.00 74 1014.4
20260905081312 78 169 0.0 0.0 0.00 0.00 0.00 74 1014.4
20260905080830 79 169 0.0 0.0 0.00 0.00 0.00 73 1014.4
20260905080323 79 168 0.0 0.0 0.00 0.00 0.00 73 1014.4
20260905075817 80 169 0.0 0.0 0.00 0.00 0.00 72 1014.4
20260905075310 80 169 0.0 0.0 0.00 0.00 0.00 72 1014.3
20260905074825 80 169 0.0 0.0 0.00 0.00 0.00 72 1014.4
20260905074320 80 160 0.0 0.0 0.00 0.00 0.00 71 1014.4
20260905073814 80 160 0.0 0.0 0.00 0.00 0.00 71 1014.4
20260905073311 81 128 0.0 0.0 0.00 0.00 0.00 71 1014.4
20260905072809 81 191 0.0 0.0 0.00 0.00 0.00 70 1014.4
20260905072324 81 213 0.0 0.0 0.00 0.00 0.00 70 1014.5
20260905071819 81 212 0.0 0.0 0.00 0.00 0.00 70 1014.5
20260905071334 81 212 0.0 0.0 0.00 0.00 0.00 69 1014.4
20260905070808 81 164 0.0 0.0 0.00 0.00 0.00 69 1014.5
20260905070323 82 202 0.0 2.0 0.00 0.00 0.00 69 1014.5
20260905065818 82 222 0.0 2.0 0.00 0.00 0.00 68 1014.5
20260905065313 82 195 0.0 3.0 0.00 0.00 0.00 68 1014.6
20260905064811 83 214 1.0 4.0 0.00 0.00 0.00 67 1014.7
20260905064325 83 222 1.0 4.0 0.00 0.00 0.00 67 1014.6
20260905063840 83 220 1.0 4.0 0.00 0.00 0.00 67 1014.6
20260905063334 83 228 2.0 4.0 0.00 0.00 0.00 67 1014.7
20260905062826 83 209 1.0 4.0 0.00 0.00 0.00 67 1014.7
20260905062321 82 217 2.0 4.0 0.00 0.00 0.00 67 1014.7
20260905061836 82 207 1.0 4.0 0.00 0.00 0.00 67 1014.7
20260905061310 82 226 1.0 4.0 0.00 0.00 0.00 68 1014.8
20260905060844 82 191 0.0 2.0 0.00 0.00 0.00 68 1014.8
20260905060318 82 195 1.0 2.0 0.00 0.00 0.00 68 1014.8
20260905055817 82 214 0.0 2.0 0.00 0.00 0.00 67 1014.8
20260905055311 82 222 0.0 2.0 0.00 0.00 0.00 67 1014.8
20260905054826 82 196 0.0 3.0 0.00 0.00 0.00 66 1014.8
20260905054321 83 229 0.0 3.0 0.00 0.00 0.00 66 1014.8
20260905053816 83 218 1.0 3.0 0.00 0.00 0.00 66 1014.7
20260905053311 83 210 0.0 3.0 0.00 0.00 0.00 66 1014.8
20260905052824 82 212 0.0 5.0 0.00 0.00 0.00 67 1014.8
20260905052318 81 210 1.0 5.0 0.00 0.00 0.00 68 1014.7
20260905051817 81 215 0.0 1.0 0.00 0.00 0.00 70 1014.6
20260905051312 80 162 0.0 0.0 0.00 0.00 0.00 71 1014.6
20260905050827 79 182 0.0 0.0 0.00 0.00 0.00 72 1014.6
20260905050321 79 182 0.0 0.0 0.00 0.00 0.00 73 1014.6
20260905045815 79 184 0.0 0.0 0.00 0.00 0.00 74 1014.5
20260905045310 79 184 0.0 0.0 0.00 0.00 0.00 74 1014.6
20260905044825 79 184 0.0 0.0 0.00 0.00 0.00 74 1014.5
20260905044319 80 184 0.0 0.0 0.00 0.00 0.00 73 1014.5
20260905043818 80 184 0.0 0.0 0.00 0.00 0.00 74 1014.5
20260905043313 80 184 0.0 0.0 0.00 0.00 0.00 73 1014.6
20260905042827 80 184 0.0 0.0 0.00 0.00 0.00 73 1014.6
20260905042321 80 184 0.0 0.0 0.00 0.00 0.00 74 1014.5
20260905041816 79 184 0.0 0.0 0.00 0.00 0.00 74 1014.5
20260905041311 79 184 0.0 0.0 0.00 0.00 0.00 74 1014.5
20260905040825 79 184 0.0 0.0 0.00 0.00 0.00 75 1014.6
20260905040320 78 185 0.0 0.0 0.00 0.00 0.00 76 1014.5
20260905035818 78 184 0.0 0.0 0.00 0.00 0.00 75 1014.5
20260905035333 78 184 0.0 0.0 0.00 0.00 0.00 75 1014.4
20260905034846 79 184 0.0 0.0 0.00 0.00 0.00 75 1014.4
20260905034319 79 184 0.0 0.0 0.00 0.00 0.00 74 1014.5
20260905033814 79 185 0.0 0.0 0.00 0.00 0.00 76 1014.5
20260905033329 79 184 0.0 0.0 0.00 0.00 0.00 75 1014.5
20260905032843 79 184 0.0 0.0 0.00 0.00 0.00 74 1014.4
20260905032317 79 184 0.0 0.0 0.00 0.00 0.00 74 1014.4
20260905031812 79 184 0.0 0.0 0.00 0.00 0.00 72 1014.4
20260905031311 80 184 0.0 0.0 0.00 0.00 0.00 73 1014.4
20260905030825 80 185 0.0 0.0 0.00 0.00 0.00 74 1014.3
20260905030320 80 184 0.0 0.0 0.00 0.00 0.00 74 1014.3
20260905025815 79 185 0.0 0.0 0.00 0.00 0.00 72 1014.3
20260905025329 79 185 0.0 0.0 0.00 0.00 0.00 72 1014.3
20260905024823 80 184 0.0 0.0 0.00 0.00 0.00 73 1014.2
20260905024337 80 184 0.0 0.0 0.00 0.00 0.00 72 1014.1
20260905023811 80 184 0.0 0.0 0.00 0.00 0.00 72 1014.0
20260905023325 81 184 0.0 0.0 0.00 0.00 0.00 71 1013.9
20260905022824 81 184 0.0 0.0 0.00 0.00 0.00 70 1013.8
20260905022319 81 184 0.0 0.0 0.00 0.00 0.00 69 1013.7
20260905021814 81 184 0.0 0.0 0.00 0.00 0.00 69 1013.7
20260905021329 82 185 0.0 0.0 0.00 0.00 0.00 68 1013.7
20260905020823 82 184 0.0 0.0 0.00 0.00 0.00 68 1013.6
20260905020318 82 184 0.0 0.0 0.00 0.00 0.00 67 1013.5
20260905015832 82 185 0.0 0.0 0.00 0.00 0.00 66 1013.4
20260905015326 83 186 0.0 0.0 0.00 0.00 0.00 67 1013.3
20260905014821 83 185 0.0 0.0 0.00 0.00 0.00 64 1013.3
20260905014340 83 185 0.0 0.0 0.00 0.00 0.00 64 1013.2
20260905013814 84 185 0.0 0.0 0.00 0.00 0.00 63 1013.2
20260905013309 84 186 0.0 0.0 0.00 0.00 0.00 63 1013.1
20260905012844 84 185 0.0 0.0 0.00 0.00 0.00 63 1013.0
20260905012338 85 186 0.0 0.0 0.00 0.00 0.00 61 1013.0
20260905011811 85 186 0.0 0.0 0.00 0.00 0.00 61 1013.0
20260905011326 86 186 0.0 0.0 0.00 0.00 0.00 60 1012.9
20260905010841 86 186 0.0 0.0 0.00 0.00 0.00 58 1012.9
20260905010315 87 186 0.0 0.0 0.00 0.00 0.00 57 1012.9
20260905005814 87 186 0.0 0.0 0.00 0.00 0.00 57 1012.9
20260905005309 88 186 0.0 0.0 0.00 0.00 0.00 55 1012.9
20260905004845 88 186 0.0 0.0 0.00 0.00 0.00 54 1012.8
20260905004318 89 186 0.0 0.0 0.00 0.00 0.00 54 1012.8
20260905003813 90 186 0.0 0.0 0.00 0.00 0.00 52 1012.7
20260905003328 90 186 0.0 0.0 0.00 0.00 0.00 51 1012.8
20260905002821 91 186 0.0 0.0 0.00 0.00 0.00 50 1012.8
20260905002315 92 186 0.0 0.0 0.00 0.00 0.00 49 1012.8
20260905001830 93 186 0.0 0.0 0.00 0.00 0.00 48 1012.8
20260905001308 94 186 0.0 0.0 0.00 0.00 0.00 47 1012.8
20260905000823 95 186 0.0 0.0 0.00 0.00 0.00 47 1012.8
20260905000318 96 185 0.0 0.0 0.00 0.00 0.00 44 1012.8
20260904235812 96 186 0.0 0.0 0.00 0.00 0.00 43 1012.8
20260904235327 97 186 0.0 2.0 0.00 0.00 0.00 42 1012.8
20260904234841 97 103 1.0 2.0 0.00 0.00 0.00 42 1012.8
20260904234313 97 169 1.0 3.0 0.00 0.00 0.00 41 1012.8
20260904233847 97 171 0.0 3.0 0.00 0.00 0.00 41 1012.7
20260904233341 98 179 0.0 5.0 0.00 0.00 0.00 41 1012.7
20260904232835 98 168 1.0 5.0 0.00 0.00 0.00 40 1012.7
20260904232313 98 162 0.0 3.0 0.00 0.00 0.00 39 1012.7
20260904231847 99 203 0.0 3.0 0.00 0.00 0.00 39 1012.8
20260904231320 99 214 0.0 3.0 0.00 0.00 0.00 39 1012.7
20260904230835 99 209 1.0 3.0 0.00 0.00 0.00 38 1012.8
20260904230309 99 208 1.0 4.0 0.00 0.00 0.00 38 1012.8
20260904225823 99 214 0.0 6.0 0.00 0.00 0.00 39 1012.8
20260904225317 99 219 3.0 5.0 0.00 0.00 0.00 38 1012.8
20260904224832 99 236 0.0 5.0 0.00 0.00 0.00 39 1012.8
20260904224325 99 223 2.0 5.0 0.00 0.00 0.00 38 1012.8
20260904223820 99 207 1.0 5.0 0.00 0.00 0.00 38 1012.9
20260904223318 99 229 1.0 3.0 0.00 0.00 0.00 38 1012.8
20260904222813 99 212 1.0 4.0 0.00 0.00 0.00 37 1012.9
20260904222327 100 178 2.0 4.0 0.00 0.00 0.00 36 1012.9
20260904221842 100 295 0.0 4.0 0.00 0.00 0.00 37 1013.0
20260904221316 101 222 1.0 4.0 0.00 0.00 0.00 36 1013.0
20260904220812 101 262 1.0 7.0 0.00 0.00 0.00 35 1013.0
20260904220327 102 208 2.0 7.0 0.00 0.00 0.00 35 1013.0
20260904215821 102 167 2.0 7.0 0.00 0.00 0.00 35 1012.9
20260904215319 103 191 1.0 6.0 0.00 0.00 0.00 35 1013.0
20260904214813 102 313 1.0 4.0 0.00 0.00 0.00 36 1013.1
20260904214308 102 196 0.0 6.0 0.00 0.00 0.00 36 1013.1
20260904213823 103 219 1.0 6.0 0.00 0.00 0.00 34 1013.1
20260904213337 103 179 2.0 5.0 0.00 0.00 0.00 36 1013.1
20260904212812 103 200 1.0 5.0 0.00 0.00 0.00 35 1013.1
20260904212327 102 163 1.0 5.0 0.00 0.00 0.00 36 1013.2
20260904211821 102 186 1.0 6.0 0.00 0.00 0.00 35 1013.2
20260904211319 102 228 2.0 6.0 0.00 0.00 0.00 36 1013.3
20260904210834 103 112 0.0 7.0 0.00 0.00 0.00 36 1013.4
20260904210308 102 162 3.0 11.0 0.00 0.00 0.00 36 1013.6
20260904205823 101 158 1.0 11.0 0.00 0.00 0.00 39 1013.5
20260904205318 101 142 2.0 7.0 0.00 0.00 0.00 38 1013.5
20260904204811 101 43 3.0 6.0 0.00 0.00 0.00 38 1013.7
20260904204326 101 141 1.0 5.0 0.00 0.00 0.00 40 1013.8
20260904203821 101 207 1.0 7.0 0.00 0.00 0.00 38 1013.8
20260904203336 102 151 2.0 8.0 0.00 0.00 0.00 37 1013.9
20260904202814 103 61 1.0 8.0 0.00 0.00 0.00 38 1013.9
20260904202309 102 167 2.0 8.0 0.00 0.00 0.00 38 1013.9
20260904201824 101 34 0.0 6.0 0.00 0.00 0.00 38 1014.0
20260904201318 102 215 2.0 6.0 0.00 0.00 0.00 38 1014.0
20260904200813 102 120 2.0 5.0 0.00 0.00 0.00 38 1014.0
20260904195823 101 226 1.0 7.0 0.00 0.00 0.00 39 1014.2
20260904195322 102 20 2.0 7.0 0.00 0.00 0.00 38 1014.2
20260904194837 101 187 2.0 6.0 0.00 0.00 0.00 38 1014.3
20260904194311 100 219 0.0 7.0 0.00 0.00 0.00 41 1014.3
20260904193846 100 238 3.0 7.0 0.00 0.00 0.00 39 1014.4
20260904193318 100 212 2.0 5.0 0.00 0.00 0.00 40 1014.4
20260904192813 101 213 3.0 6.0 0.00 0.00 0.00 39 1014.5
20260904192308 102 241 1.0 6.0 0.00 0.00 0.00 39 1014.6
20260904191823 102 232 2.0 5.0 0.00 0.00 0.00 41 1014.7
20260904191318 101 197 0.0 3.0 0.00 0.00 0.00 39 1014.7
20260904190817 101 174 2.0 7.0 0.00 0.00 0.00 39 1014.8
20260904190310 100 164 3.0 7.0 0.00 0.00 0.00 40 1015.0
20260904185825 100 266 0.0 6.0 0.00 0.00 0.00 40 1015.0
20260904185320 99 174 3.0 8.0 0.00 0.00 0.00 44 1014.9
20260904184814 99 215 1.0 8.0 0.00 0.00 0.00 45 1015.0
20260904184308 99 229 5.0 8.0 0.00 0.00 0.00 42 1015.1
20260904183823 99 229 2.0 5.0 0.00 0.00 0.00 42 1015.1
20260904183338 100 65 1.0 5.0 0.00 0.00 0.00 42 1015.2
20260904182836 99 65 1.0 7.0 0.00 0.00 0.00 42 1015.2
20260904182309 98 68 2.0 7.0 0.00 0.00 0.00 43 1015.3
20260904181824 98 215 2.0 8.0 0.00 0.00 0.00 42 1015.3
20260904181320 99 159 3.0 8.0 0.00 0.00 0.00 43 1015.4
20260904180813 98 113 1.0 6.0 0.00 0.00 0.00 45 1015.4
20260904180307 98 204 3.0 7.0 0.00 0.00 0.00 44 1015.5
20260904175822 98 226 2.0 7.0 0.00 0.00 0.00 46 1015.6
20260904175318 98 120 3.0 8.0 0.00 0.00 0.00 44 1015.8